Time,TemperatureF,DewpointF,PressureIn,WindDirection,WindDirectionDegrees,WindSpeedMPH,WindSpeedGustMPH,Humidity,HourlyPrecipIn,Conditions,Clouds,dailyrainin,SoftwareType,DateUTC
2013-03-25 00:03:00,30.0,21.0,29.71,ENE,78,6.0,17.0,70,0.00,,,0.00,,2013-03-25 04:03:00,
2013-03-25 00:12:00,30.0,21.0,29.71,ENE,78,6.0,17.0,70,0.00,,,0.00,,2013-03-25 04:12:00,
2013-03-25 00:23:00,30.0,21.0,29.71,ENE,78,6.0,17.0,70,0.00,,,0.00,,2013-03-25 04:23:00,
2013-03-25 00:33:00,30.0,22.0,29.71,NNE,27,3.0,12.0,72,0.00,,,0.00,,2013-03-25 04:33:00,
2013-03-25 00:43:00,30.0,22.0,29.71,NNE,27,3.0,12.0,72,0.00,,,0.00,,2013-03-25 04:43:00,
2013-03-25 00:52:00,30.0,22.0,29.71,NNE,27,3.0,12.0,72,0.00,,,0.00,,2013-03-25 04:52:00,
2013-03-25 01:03:00,30.0,22.0,29.71,ENE,60,5.0,12.0,72,0.00,,,0.00,,2013-03-25 05:03:00,
2013-03-25 01:12:00,30.0,22.0,29.71,ENE,60,5.0,12.0,72,0.00,,,0.00,,2013-03-25 05:12:00,
2013-03-25 01:22:00,30.0,22.0,29.71,ENE,60,5.0,12.0,72,0.00,,,0.00,,2013-03-25 05:22:00,
2013-03-25 01:32:00,30.0,22.0,29.70,ENE,60,3.0,12.0,73,0.00,,,0.00,,2013-03-25 05:32:00,
2013-03-25 01:42:00,30.0,22.0,29.70,ENE,60,3.0,12.0,73,0.00,,,0.00,,2013-03-25 05:42:00,
2013-03-25 01:53:00,30.0,22.0,29.70,ENE,60,3.0,12.0,73,0.00,,,0.00,,2013-03-25 05:53:00,
2013-03-25 02:02:00,30.0,23.0,29.69,NW,326,2.0,14.0,74,0.00,,,0.00,,2013-03-25 06:02:00,
2013-03-25 02:12:00,30.0,23.0,29.69,NW,326,2.0,14.0,74,0.00,,,0.00,,2013-03-25 06:12:00,
2013-03-25 02:22:00,30.0,23.0,29.69,NW,326,2.0,14.0,74,0.00,,,0.00,,2013-03-25 06:22:00,
2013-03-25 02:32:00,30.0,23.0,29.69,North,5,3.0,12.0,76,0.00,,,0.00,,2013-03-25 06:32:00,
2013-03-25 02:42:00,30.0,23.0,29.69,North,5,3.0,12.0,76,0.00,,,0.00,,2013-03-25 06:42:00,
2013-03-25 02:53:00,30.0,23.0,29.69,North,5,3.0,12.0,76,0.00,,,0.00,,2013-03-25 06:53:00,
2013-03-25 03:02:00,30.0,23.0,29.69,NNE,24,7.0,16.0,76,0.00,,,0.00,,2013-03-25 07:02:00,
2013-03-25 03:12:00,30.0,23.0,29.69,NNE,24,7.0,16.0,76,0.00,,,0.00,,2013-03-25 07:12:00,
2013-03-25 03:22:00,30.0,23.0,29.69,NNE,24,7.0,16.0,76,0.00,,,0.00,,2013-03-25 07:22:00,
2013-03-25 03:32:00,30.0,24.0,29.68,ENE,58,6.0,14.0,77,0.00,,,0.00,,2013-03-25 07:32:00,
2013-03-25 03:42:00,30.0,24.0,29.68,ENE,58,6.0,14.0,77,0.00,,,0.00,,2013-03-25 07:42:00,
2013-03-25 03:53:00,30.0,24.0,29.68,ENE,58,6.0,14.0,77,0.00,,,0.00,,2013-03-25 07:53:00,
2013-03-25 04:03:00,30.0,24.0,29.67,NNE,24,4.0,13.0,77,0.00,,,0.00,,2013-03-25 08:03:00,
2013-03-25 04:12:00,30.0,24.0,29.67,NNE,24,4.0,13.0,77,0.00,,,0.00,,2013-03-25 08:12:00,
2013-03-25 04:23:00,30.0,24.0,29.67,NNE,24,4.0,13.0,77,0.00,,,0.00,,2013-03-25 08:23:00,
2013-03-25 04:32:00,30.0,24.0,29.65,NE,40,6.0,18.0,78,0.00,,,0.00,,2013-03-25 08:32:00,
2013-03-25 04:43:00,30.0,24.0,29.65,NE,40,6.0,18.0,78,0.00,,,0.00,,2013-03-25 08:43:00,
2013-03-25 04:52:00,30.0,24.0,29.65,NE,40,6.0,18.0,78,0.00,,,0.00,,2013-03-25 08:52:00,
2013-03-25 05:02:00,30.0,24.0,29.65,NNE,25,4.0,17.0,78,0.00,,,0.00,,2013-03-25 09:02:00,
2013-03-25 05:12:00,30.0,24.0,29.65,NNE,25,4.0,17.0,78,0.00,,,0.00,,2013-03-25 09:12:00,
2013-03-25 05:22:00,30.0,24.0,29.65,NNE,25,4.0,17.0,78,0.00,,,0.00,,2013-03-25 09:22:00,
2013-03-25 05:33:00,30.0,24.0,29.65,NNE,12,4.0,13.0,78,0.00,,,0.00,,2013-03-25 09:33:00,
2013-03-25 05:43:00,30.0,24.0,29.65,NNE,12,4.0,13.0,78,0.00,,,0.00,,2013-03-25 09:43:00,
2013-03-25 05:53:00,30.0,24.0,29.65,NNE,12,4.0,13.0,78,0.00,,,0.00,,2013-03-25 09:53:00,
2013-03-25 06:03:00,30.0,24.0,29.65,NNE,26,6.0,12.0,79,0.00,,,0.00,,2013-03-25 10:03:00,
2013-03-25 06:12:00,30.0,24.0,29.65,NNE,26,6.0,12.0,79,0.00,,,0.00,,2013-03-25 10:12:00,
2013-03-25 06:23:00,30.0,24.0,29.65,NNE,26,6.0,12.0,79,0.00,,,0.00,,2013-03-25 10:23:00,
2013-03-25 06:33:00,30.0,24.0,29.65,ENE,64,3.0,12.0,79,0.00,,,0.00,,2013-03-25 10:33:00,
2013-03-25 06:43:00,30.0,24.0,29.65,ENE,64,3.0,12.0,79,0.00,,,0.00,,2013-03-25 10:43:00,
2013-03-25 06:54:00,30.0,24.0,29.65,ENE,64,3.0,12.0,79,0.00,,,0.00,,2013-03-25 10:54:00,
2013-03-25 07:03:00,31.0,25.0,29.66,NE,43,2.0,15.0,79,0.00,,,0.00,,2013-03-25 11:03:00,
2013-03-25 07:12:00,31.0,25.0,29.66,NE,43,2.0,15.0,79,0.00,,,0.00,,2013-03-25 11:12:00,
2013-03-25 07:23:00,31.0,25.0,29.66,NE,43,2.0,15.0,79,0.00,,,0.00,,2013-03-25 11:23:00,
2013-03-25 07:32:00,30.0,24.0,29.67,North,355,5.0,12.0,79,0.00,,,0.00,,2013-03-25 11:32:00,
2013-03-25 07:42:00,30.0,24.0,29.67,North,355,5.0,12.0,79,0.00,,,0.00,,2013-03-25 11:42:00,
2013-03-25 07:53:00,30.0,24.0,29.67,North,355,5.0,12.0,79,0.00,,,0.00,,2013-03-25 11:53:00,
2013-03-25 08:03:00,30.0,25.0,29.68,NNE,15,7.0,18.0,80,0.00,,,0.00,,2013-03-25 12:03:00,
2013-03-25 08:13:00,30.0,25.0,29.68,NNE,15,7.0,18.0,80,0.00,,,0.00,,2013-03-25 12:13:00,
2013-03-25 08:23:00,30.0,25.0,29.68,NNE,15,7.0,18.0,80,0.00,,,0.00,,2013-03-25 12:23:00,
2013-03-25 08:32:00,30.0,25.0,29.69,North,11,5.0,13.0,80,0.00,,,0.00,,2013-03-25 12:32:00,
2013-03-25 08:43:00,30.0,25.0,29.69,North,11,5.0,13.0,80,0.00,,,0.00,,2013-03-25 12:43:00,
2013-03-25 08:54:00,30.0,25.0,29.69,North,11,5.0,13.0,80,0.00,,,0.00,,2013-03-25 12:54:00,
2013-03-25 09:03:00,30.0,24.0,29.70,NNE,13,6.0,16.0,79,0.00,,,0.00,,2013-03-25 13:03:00,
2013-03-25 09:13:00,30.0,24.0,29.70,NNE,13,6.0,16.0,79,0.00,,,0.00,,2013-03-25 13:13:00,
2013-03-25 09:23:00,30.0,24.0,29.70,NNE,13,6.0,16.0,79,0.00,,,0.00,,2013-03-25 13:23:00,
2013-03-25 09:32:00,31.0,25.0,29.70,NNW,336,5.0,14.0,79,0.00,,,0.00,,2013-03-25 13:32:00,
2013-03-25 09:43:00,31.0,25.0,29.70,NNW,336,5.0,14.0,79,0.00,,,0.00,,2013-03-25 13:43:00,
2013-03-25 09:53:00,31.0,25.0,29.70,NNW,336,5.0,14.0,79,0.00,,,0.00,,2013-03-25 13:53:00,
2013-03-25 10:03:00,32.0,26.0,29.72,NNE,12,6.0,13.0,78,0.00,,,0.00,,2013-03-25 14:03:00,
2013-03-25 10:13:00,32.0,26.0,29.72,NNE,12,6.0,13.0,78,0.00,,,0.00,,2013-03-25 14:13:00,
2013-03-25 10:23:00,32.0,26.0,29.72,NNE,12,6.0,13.0,78,0.00,,,0.00,,2013-03-25 14:23:00,
2013-03-25 10:32:00,32.0,26.0,29.72,North,351,4.0,12.0,77,0.00,,,0.00,,2013-03-25 14:32:00,
2013-03-25 10:42:00,32.0,26.0,29.72,North,351,4.0,12.0,77,0.00,,,0.00,,2013-03-25 14:42:00,
2013-03-25 10:53:00,32.0,26.0,29.72,North,351,4.0,12.0,77,0.00,,,0.00,,2013-03-25 14:53:00,
2013-03-25 11:03:00,33.0,26.0,29.73,NE,36,3.0,13.0,76,0.00,,,0.00,,2013-03-25 15:03:00,
2013-03-25 11:13:00,33.0,26.0,29.73,NE,36,3.0,13.0,76,0.00,,,0.00,,2013-03-25 15:13:00,
2013-03-25 11:23:00,33.0,26.0,29.73,NE,36,3.0,13.0,76,0.00,,,0.00,,2013-03-25 15:23:00,
2013-03-25 11:33:00,34.0,26.0,29.74,NE,56,6.0,15.0,73,0.00,,,0.00,,2013-03-25 15:33:00,
2013-03-25 11:42:00,34.0,26.0,29.74,NE,56,6.0,15.0,73,0.00,,,0.00,,2013-03-25 15:42:00,
2013-03-25 11:54:00,34.0,26.0,29.74,NE,56,6.0,15.0,73,0.00,,,0.00,,2013-03-25 15:54:00,
2013-03-25 12:03:00,34.0,26.0,29.74,NNW,343,6.0,18.0,72,0.00,,,0.00,,2013-03-25 16:03:00,
2013-03-25 12:12:00,34.0,26.0,29.74,NNW,343,6.0,18.0,72,0.00,,,0.00,,2013-03-25 16:12:00,
2013-03-25 12:23:00,34.0,26.0,29.74,NNW,343,6.0,18.0,72,0.00,,,0.00,,2013-03-25 16:23:00,
2013-03-25 12:33:00,35.0,26.0,29.75,ENE,75,6.0,14.0,69,0.00,,,0.00,,2013-03-25 16:33:00,
2013-03-25 12:44:00,35.0,26.0,29.75,ENE,75,6.0,14.0,69,0.00,,,0.00,,2013-03-25 16:44:00,
2013-03-25 12:53:00,35.0,26.0,29.75,ENE,75,6.0,14.0,69,0.00,,,0.00,,2013-03-25 16:53:00,
2013-03-25 13:03:00,36.0,26.0,29.75,North,9,8.0,20.0,67,0.00,,,0.00,,2013-03-25 17:03:00,
2013-03-25 13:12:00,36.0,26.0,29.75,North,9,8.0,20.0,67,0.00,,,0.00,,2013-03-25 17:12:00,
2013-03-25 13:24:00,36.0,26.0,29.75,North,9,8.0,20.0,67,0.00,,,0.00,,2013-03-25 17:24:00,
2013-03-25 13:33:00,35.0,26.0,29.76,North,350,6.0,14.0,68,0.00,,,0.00,,2013-03-25 17:33:00,
2013-03-25 13:43:00,35.0,26.0,29.76,North,350,6.0,14.0,68,0.00,,,0.00,,2013-03-25 17:43:00,
2013-03-25 13:53:00,35.0,26.0,29.76,North,350,6.0,14.0,68,0.00,,,0.00,,2013-03-25 17:53:00,
2013-03-25 14:04:00,36.0,26.0,29.77,North,11,5.0,20.0,66,0.00,,,0.00,,2013-03-25 18:04:00,
2013-03-25 14:13:00,36.0,26.0,29.77,North,11,5.0,20.0,66,0.00,,,0.00,,2013-03-25 18:13:00,
2013-03-25 14:23:00,36.0,26.0,29.77,North,11,5.0,20.0,66,0.00,,,0.00,,2013-03-25 18:23:00,
2013-03-25 14:33:00,36.0,27.0,29.78,NNE,13,7.0,14.0,69,0.00,,,0.00,,2013-03-25 18:33:00,
2013-03-25 14:43:00,36.0,27.0,29.78,NNE,13,7.0,14.0,69,0.00,,,0.00,,2013-03-25 18:43:00,
2013-03-25 14:53:00,36.0,27.0,29.78,NNE,13,7.0,14.0,69,0.00,,,0.00,,2013-03-25 18:53:00,
2013-03-25 15:03:00,36.0,27.0,29.78,North,0,9.0,20.0,70,0.00,,,0.00,,2013-03-25 19:03:00,
2013-03-25 15:13:00,36.0,27.0,29.78,North,0,9.0,20.0,70,0.00,,,0.00,,2013-03-25 19:13:00,
2013-03-25 15:23:00,36.0,27.0,29.78,North,0,9.0,20.0,70,0.00,,,0.00,,2013-03-25 19:23:00,
2013-03-25 15:33:00,37.0,26.0,29.78,North,350,7.0,15.0,65,0.00,,,0.00,,2013-03-25 19:33:00,
2013-03-25 15:43:00,37.0,26.0,29.78,North,350,7.0,15.0,65,0.00,,,0.00,,2013-03-25 19:43:00,
2013-03-25 15:53:00,37.0,26.0,29.78,North,350,7.0,15.0,65,0.00,,,0.00,,2013-03-25 19:53:00,
2013-03-25 16:02:00,37.0,26.0,29.79,ENE,68,6.0,12.0,64,0.00,,,0.00,,2013-03-25 20:02:00,
2013-03-25 16:12:00,37.0,26.0,29.79,ENE,68,6.0,12.0,64,0.00,,,0.00,,2013-03-25 20:12:00,
2013-03-25 16:22:00,37.0,26.0,29.79,ENE,68,6.0,12.0,64,0.00,,,0.00,,2013-03-25 20:22:00,
2013-03-25 16:32:00,38.0,26.0,29.79,NE,35,3.0,13.0,62,0.00,,,0.00,,2013-03-25 20:32:00,
2013-03-25 16:42:00,38.0,26.0,29.79,NE,35,3.0,13.0,62,0.00,,,0.00,,2013-03-25 20:42:00,
2013-03-25 16:52:00,38.0,26.0,29.79,NE,35,3.0,13.0,62,0.00,,,0.00,,2013-03-25 20:52:00,
2013-03-25 17:03:00,38.0,26.0,29.80,North,354,6.0,16.0,61,0.00,,,0.00,,2013-03-25 21:03:00,
2013-03-25 17:12:00,38.0,26.0,29.80,North,354,6.0,16.0,61,0.00,,,0.00,,2013-03-25 21:12:00,
2013-03-25 17:22:00,38.0,26.0,29.80,North,354,6.0,16.0,61,0.00,,,0.00,,2013-03-25 21:22:00,
2013-03-25 17:33:00,37.0,25.0,29.81,NNE,16,4.0,12.0,62,0.00,,,0.00,,2013-03-25 21:33:00,
2013-03-25 17:43:00,37.0,25.0,29.81,NNE,16,4.0,12.0,62,0.00,,,0.00,,2013-03-25 21:43:00,
2013-03-25 17:52:00,37.0,25.0,29.81,NNE,16,4.0,12.0,62,0.00,,,0.00,,2013-03-25 21:52:00,
2013-03-25 18:03:00,37.0,25.0,29.83,North,353,5.0,15.0,62,0.00,,,0.00,,2013-03-25 22:03:00,
2013-03-25 18:13:00,37.0,25.0,29.83,North,353,5.0,15.0,62,0.00,,,0.00,,2013-03-25 22:13:00,
2013-03-25 18:23:00,37.0,25.0,29.83,North,353,5.0,15.0,62,0.00,,,0.00,,2013-03-25 22:23:00,
2013-03-25 18:33:00,38.0,26.0,29.83,NNW,348,5.0,12.0,61,0.00,,,0.00,,2013-03-25 22:33:00,
2013-03-25 18:42:00,38.0,26.0,29.83,NNW,348,5.0,12.0,61,0.00,,,0.00,,2013-03-25 22:42:00,
2013-03-25 18:52:00,38.0,26.0,29.83,NNW,348,5.0,12.0,61,0.00,,,0.00,,2013-03-25 22:52:00,
2013-03-25 19:03:00,38.0,27.0,29.85,North,355,2.0,8.0,63,0.00,,,0.00,,2013-03-25 23:03:00,
2013-03-25 19:12:00,38.0,27.0,29.85,North,355,2.0,8.0,63,0.00,,,0.00,,2013-03-25 23:12:00,
2013-03-25 19:23:00,38.0,27.0,29.85,North,355,2.0,8.0,63,0.00,,,0.00,,2013-03-25 23:23:00,
2013-03-25 19:33:00,37.0,26.0,29.87,NNW,330,5.0,12.0,63,0.00,,,0.00,,2013-03-25 23:33:00,
2013-03-25 19:43:00,37.0,26.0,29.87,NNW,330,5.0,12.0,63,0.00,,,0.00,,2013-03-25 23:43:00,
2013-03-25 19:53:00,37.0,26.0,29.87,NNW,330,5.0,12.0,63,0.00,,,0.00,,2013-03-25 23:53:00,
2013-03-25 20:02:00,36.0,26.0,29.88,North,354,5.0,12.0,66,0.00,,,0.00,,2013-03-26 00:02:00,
2013-03-25 20:12:00,36.0,26.0,29.88,North,354,5.0,12.0,66,0.00,,,0.00,,2013-03-26 00:12:00,
2013-03-25 20:22:00,36.0,26.0,29.88,North,354,5.0,12.0,66,0.00,,,0.00,,2013-03-26 00:22:00,
2013-03-25 20:32:00,36.0,26.0,29.90,NNW,348,3.0,8.0,67,0.00,,,0.00,,2013-03-26 00:32:00,
2013-03-25 20:42:00,36.0,26.0,29.90,NNW,348,3.0,8.0,67,0.00,,,0.00,,2013-03-26 00:42:00,
2013-03-25 20:52:00,36.0,26.0,29.90,NNW,348,3.0,8.0,67,0.00,,,0.00,,2013-03-26 00:52:00,
2013-03-25 21:02:00,36.0,26.0,29.92,NNW,345,2.0,6.0,68,0.00,,,0.00,,2013-03-26 01:02:00,
2013-03-25 21:12:00,36.0,26.0,29.92,NNW,345,2.0,6.0,68,0.00,,,0.00,,2013-03-26 01:12:00,
2013-03-25 21:23:00,36.0,26.0,29.92,NNW,345,2.0,6.0,68,0.00,,,0.00,,2013-03-26 01:23:00,
2013-03-25 21:32:00,36.0,26.0,29.92,NNW,345,2.0,6.0,68,0.00,,,0.00,,2013-03-26 01:32:00,
2013-03-25 21:42:00,36.0,26.0,29.92,NNW,345,2.0,6.0,68,0.00,,,0.00,,2013-03-26 01:42:00,
2013-03-25 22:02:00,34.0,27.0,29.94,NNW,335,5.0,7.0,74,0.00,,,0.00,,2013-03-26 02:02:00,
2013-03-25 22:12:00,34.0,27.0,29.94,NNW,335,5.0,7.0,74,0.00,,,0.00,,2013-03-26 02:12:00,
2013-03-25 22:23:00,34.0,27.0,29.94,NNW,335,5.0,7.0,74,0.00,,,0.00,,2013-03-26 02:23:00,
2013-03-25 22:32:00,34.0,27.0,29.96,NNW,347,5.0,13.0,75,0.00,,,0.00,,2013-03-26 02:32:00,
2013-03-25 22:42:00,34.0,27.0,29.96,NNW,347,5.0,13.0,75,0.00,,,0.00,,2013-03-26 02:42:00,
2013-03-25 22:52:00,34.0,27.0,29.96,NNW,347,5.0,13.0,75,0.00,,,0.00,,2013-03-26 02:52:00,
2013-03-25 23:02:00,34.0,28.0,29.96,North,354,5.0,12.0,80,0.00,,,0.00,,2013-03-26 03:02:00,
2013-03-25 23:12:00,34.0,28.0,29.96,North,354,5.0,12.0,80,0.00,,,0.00,,2013-03-26 03:12:00,
2013-03-25 23:22:00,34.0,28.0,29.96,North,354,5.0,12.0,80,0.00,,,0.00,,2013-03-26 03:22:00,
2013-03-25 23:34:00,34.0,27.0,29.97,North,354,3.0,8.0,75,0.00,,,0.00,,2013-03-26 03:34:00,
2013-03-25 23:42:00,34.0,27.0,29.97,North,354,3.0,8.0,75,0.00,,,0.00,,2013-03-26 03:42:00,
2013-03-25 23:53:00,34.0,27.0,29.97,North,354,3.0,8.0,75,0.00,,,0.00,,2013-03-26 03:53:00,